BAW931 EDDK-EGLL

Flight info

Callsign BAW931
Flight time 0h 58m
Altitude 32000
Route NVO3B/31R NVO Y868 SOGRI DCT DENUT L608 LOGAN
Aircraft A320/M-SDE3FGHIRWY/LB1

Departure

Time 2026-04-21 11:35
Airport Cologne Bonn Airport (EDDK)

Arrival

Time 2026-04-21 12:34
Airport London Heathrow Airport (EGLL)
Time Latitude Longitude Altitude Speed Heading
2026-04-21 11:03 50.88057 7.12190 232 ft 0 kts 216°
2026-04-21 11:20 50.88059 7.12192 232 ft 1 kts 216°
2026-04-21 11:20 50.88073 7.12209 232 ft 3 kts 216°
2026-04-21 11:20 50.88090 7.12227 232 ft 3 kts 216°
2026-04-21 11:21 50.88106 7.12244 233 ft 3 kts 197°
2026-04-21 11:21 50.88124 7.12248 232 ft 3 kts 160°
2026-04-21 11:21 50.88139 7.12233 233 ft 2 kts 129°
2026-04-21 11:21 50.88142 7.12227 234 ft 0 kts 126°
2026-04-21 11:24 50.88141 7.12231 232 ft 2 kts 126°
2026-04-21 11:24 50.88134 7.12245 234 ft 4 kts 127°
2026-04-21 11:24 50.88110 7.12296 234 ft 7 kts 124°
2026-04-21 11:25 50.88079 7.12368 233 ft 8 kts 125°
2026-04-21 11:25 50.88037 7.12443 234 ft 11 kts 136°
2026-04-21 11:25 50.87974 7.12533 232 ft 13 kts 138°
2026-04-21 11:25 50.87904 7.12615 232 ft 13 kts 168°
2026-04-21 11:26 50.87818 7.12630 232 ft 13 kts 143°
2026-04-21 11:26 50.87750 7.12726 232 ft 13 kts 136°
2026-04-21 11:26 50.87677 7.12831 232 ft 15 kts 137°
2026-04-21 11:26 50.87597 7.12946 232 ft 16 kts 138°
2026-04-21 11:27 50.87514 7.13067 232 ft 17 kts 137°
2026-04-21 11:27 50.87426 7.13195 232 ft 17 kts 138°
2026-04-21 11:27 50.87335 7.13329 232 ft 18 kts 136°
2026-04-21 11:27 50.87241 7.13465 234 ft 18 kts 137°
2026-04-21 11:28 50.87153 7.13592 238 ft 16 kts 138°
2026-04-21 11:28 50.87071 7.13708 241 ft 15 kts 137°
2026-04-21 11:28 50.86998 7.13815 244 ft 14 kts 137°
2026-04-21 11:28 50.86923 7.13922 250 ft 17 kts 136°
2026-04-21 11:29 50.86827 7.14062 255 ft 20 kts 137°
2026-04-21 11:29 50.86707 7.14175 258 ft 19 kts 147°
2026-04-21 11:29 50.86617 7.14307 261 ft 17 kts 136°
2026-04-21 11:29 50.86526 7.14440 264 ft 18 kts 137°
2026-04-21 11:30 50.86442 7.14562 270 ft 15 kts 136°
2026-04-21 11:30 50.86370 7.14667 274 ft 13 kts 137°
2026-04-21 11:30 50.86311 7.14752 277 ft 11 kts 137°
2026-04-21 11:30 50.86258 7.14828 280 ft 10 kts 137°
2026-04-21 11:31 50.86209 7.14899 283 ft 12 kts 138°
2026-04-21 11:31 50.86121 7.15025 287 ft 23 kts 137°
2026-04-21 11:31 50.85999 7.15203 293 ft 24 kts 137°
2026-04-21 11:31 50.85875 7.15382 298 ft 24 kts 137°
2026-04-21 11:32 50.85752 7.15564 301 ft 24 kts 137°
2026-04-21 11:32 50.85626 7.15743 305 ft 24 kts 137°
2026-04-21 11:32 50.85514 7.15903 310 ft 12 kts 137°
2026-04-21 11:32 50.85501 7.15922 308 ft 0 kts 137°
2026-04-21 11:33 50.85496 7.15929 308 ft 3 kts 137°
2026-04-21 11:33 50.85483 7.15988 309 ft 8 kts 73°
2026-04-21 11:33 50.85531 7.16082 309 ft 14 kts 49°
2026-04-21 11:34 50.85602 7.16202 308 ft 16 kts 46°
2026-04-21 11:34 50.85672 7.16321 310 ft 5 kts 45°
2026-04-21 11:34 50.85699 7.16309 308 ft 6 kts 316°
2026-04-21 11:34 50.85757 7.16223 307 ft 30 kts 317°
2026-04-21 11:35 50.86098 7.15731 299 ft 99 kts 317°
2026-04-21 11:35 50.86743 7.14803 269 ft 149 kts 317°
2026-04-21 11:35 50.87555 7.13588 678 ft 160 kts 321°
2026-04-21 11:35 50.88365 7.12369 1441 ft 161 kts 321°
2026-04-21 11:36 50.89245 7.11098 1858 ft 182 kts 322°
2026-04-21 11:36 50.90231 7.09717 2263 ft 196 kts 321°
2026-04-21 11:36 50.91101 7.07992 2750 ft 209 kts 294°
2026-04-21 11:36 50.91250 7.05660 3247 ft 224 kts 260°
2026-04-21 11:37 50.90690 7.03210 3592 ft 250 kts 248°
2026-04-21 11:37 50.90058 7.00505 4049 ft 271 kts 251°
2026-04-21 11:37 50.89461 6.97630 4846 ft 278 kts 252°
2026-04-21 11:37 50.88881 6.94673 5697 ft 283 kts 252°
2026-04-21 11:38 50.88289 6.91706 6695 ft 282 kts 252°
2026-04-21 11:38 50.87680 6.88726 7528 ft 287 kts 252°
2026-04-21 11:38 50.87037 6.85698 8350 ft 292 kts 251°
2026-04-21 11:38 50.86361 6.82641 9208 ft 296 kts 250°
2026-04-21 11:39 50.85658 6.79561 10100 ft 299 kts 250°
2026-04-21 11:39 50.84955 6.76435 10739 ft 309 kts 251°
2026-04-21 11:39 50.84237 6.73096 10957 ft 332 kts 251°
2026-04-21 11:39 50.83490 6.69530 11360 ft 347 kts 252°
2026-04-21 11:40 50.82746 6.65854 12041 ft 354 kts 256°
2026-04-21 11:40 50.82344 6.62003 12728 ft 358 kts 267°
2026-04-21 11:40 50.82348 6.58046 13407 ft 362 kts 272°
2026-04-21 11:40 50.82407 6.54056 14112 ft 364 kts 272°
2026-04-21 11:41 50.82459 6.50039 14738 ft 367 kts 272°
2026-04-21 11:41 50.82491 6.47366 15163 ft 368 kts 272°
2026-04-21 11:41 50.82540 6.43307 15781 ft 371 kts 272°
2026-04-21 11:41 50.82588 6.39219 16412 ft 373 kts 272°
2026-04-21 11:42 50.82633 6.35113 17037 ft 375 kts 272°
2026-04-21 11:42 50.82676 6.30972 17664 ft 377 kts 272°
2026-04-21 11:42 50.82718 6.26814 18288 ft 380 kts 272°
2026-04-21 11:42 50.82758 6.22624 18863 ft 382 kts 272°
2026-04-21 11:43 50.82798 6.18402 19416 ft 385 kts 272°
2026-04-21 11:43 50.82839 6.14154 19974 ft 387 kts 272°
2026-04-21 11:43 50.82878 6.09884 20521 ft 390 kts 272°
2026-04-21 11:43 50.82915 6.05579 21043 ft 393 kts 273°
2026-04-21 11:44 50.82948 6.01241 21563 ft 396 kts 272°
2026-04-21 11:44 50.82926 5.96872 22088 ft 399 kts 271°
2026-04-21 11:44 50.82845 5.92478 22590 ft 401 kts 270°
2026-04-21 11:44 50.82735 5.88056 23108 ft 404 kts 269°
2026-04-21 11:45 50.82614 5.83609 23624 ft 406 kts 270°
2026-04-21 11:45 50.82495 5.79137 24069 ft 409 kts 270°
2026-04-21 11:45 50.82379 5.74636 24473 ft 411 kts 270°
2026-04-21 11:45 50.82269 5.70109 24884 ft 413 kts 270°
2026-04-21 11:46 50.82162 5.65567 25294 ft 414 kts 270°
2026-04-21 11:46 50.82057 5.60999 25691 ft 416 kts 270°
2026-04-21 11:46 50.81954 5.56423 26114 ft 418 kts 270°
2026-04-21 11:46 50.81855 5.51820 26516 ft 419 kts 270°
2026-04-21 11:47 50.81754 5.47208 26908 ft 421 kts 270°
2026-04-21 11:47 50.81644 5.42563 27291 ft 423 kts 270°
2026-04-21 11:47 50.81529 5.37901 27671 ft 426 kts 270°
2026-04-21 11:47 50.81407 5.33217 28051 ft 428 kts 270°
2026-04-21 11:48 50.81283 5.28505 28445 ft 429 kts 270°
2026-04-21 11:48 50.81157 5.23780 28843 ft 431 kts 270°
2026-04-21 11:48 50.81030 5.19033 29225 ft 434 kts 270°
2026-04-21 11:48 50.80903 5.14260 29587 ft 435 kts 270°
2026-04-21 11:49 50.80861 5.09473 29980 ft 435 kts 276°
2026-04-21 11:49 50.81249 5.04747 30340 ft 435 kts 284°
2026-04-21 11:49 50.82108 5.00179 30640 ft 434 kts 293°
2026-04-21 11:49 50.83391 4.95861 31012 ft 432 kts 299°
2026-04-21 11:50 50.84750 4.91628 31484 ft 431 kts 298°
2026-04-21 11:50 50.86096 4.87400 31957 ft 429 kts 298°
2026-04-21 11:50 50.87430 4.83180 32233 ft 429 kts 298°
2026-04-21 11:50 50.88750 4.78983 32291 ft 422 kts 298°
2026-04-21 11:51 50.91348 4.70718 32294 ft 417 kts 298°
2026-04-21 11:51 50.93913 4.62514 32275 ft 414 kts 298°
2026-04-21 11:52 50.96464 4.54339 32276 ft 413 kts 298°
2026-04-21 11:52 50.99013 4.46166 32273 ft 413 kts 298°
2026-04-21 11:53 51.01557 4.37993 32280 ft 413 kts 298°
2026-04-21 11:53 51.04099 4.29798 32301 ft 413 kts 298°
2026-04-21 11:54 51.06629 4.21600 32305 ft 413 kts 297°
2026-04-21 11:54 51.09147 4.13381 32302 ft 413 kts 297°
2026-04-21 11:55 51.11649 4.05209 32303 ft 413 kts 297°
2026-04-21 11:55 51.14165 3.96979 32294 ft 413 kts 297°
2026-04-21 11:56 51.16673 3.88740 32288 ft 413 kts 297°
2026-04-21 11:56 51.19178 3.80487 32291 ft 414 kts 297°
2026-04-21 11:57 51.21663 3.72245 32300 ft 411 kts 297°
2026-04-21 11:57 51.24221 3.64117 32306 ft 408 kts 302°
2026-04-21 11:58 51.27121 3.56337 32310 ft 407 kts 302°
2026-04-21 11:58 51.30009 3.48554 32298 ft 408 kts 302°
2026-04-21 11:59 51.32896 3.40711 32285 ft 410 kts 302°
2026-04-21 11:59 51.35511 3.32597 32258 ft 412 kts 292°
2026-04-21 12:00 51.37539 3.24026 32294 ft 411 kts 292°
2026-04-21 12:00 51.39563 3.15481 32327 ft 410 kts 292°
2026-04-21 12:01 51.41576 3.06946 32327 ft 409 kts 292°
2026-04-21 12:01 51.43583 2.98421 32321 ft 409 kts 292°
2026-04-21 12:02 51.46567 2.85688 32317 ft 408 kts 292°
2026-04-21 12:03 51.48545 2.77199 32336 ft 405 kts 292°
2026-04-21 12:03 51.50503 2.68742 32349 ft 403 kts 292°
2026-04-21 12:04 51.52447 2.60305 32344 ft 403 kts 292°
2026-04-21 12:04 51.54376 2.51873 32342 ft 402 kts 292°
2026-04-21 12:05 51.56306 2.43432 32324 ft 404 kts 292°
2026-04-21 12:05 51.58247 2.34949 32320 ft 404 kts 292°
2026-04-21 12:06 51.60179 2.26485 32347 ft 403 kts 292°
2026-04-21 12:06 51.62096 2.18041 32009 ft 403 kts 292°
2026-04-21 12:06 51.63056 2.13786 31355 ft 402 kts 292°
2026-04-21 12:07 51.64001 2.09578 30868 ft 398 kts 292°
2026-04-21 12:07 51.64937 2.05399 30347 ft 395 kts 292°
2026-04-21 12:07 51.65863 2.01263 29806 ft 391 kts 292°
2026-04-21 12:07 51.66778 1.97180 29328 ft 385 kts 292°
2026-04-21 12:08 51.67681 1.93143 28827 ft 380 kts 292°
2026-04-21 12:08 51.68568 1.89159 28389 ft 375 kts 292°
2026-04-21 12:08 51.69439 1.85239 27942 ft 370 kts 292°
2026-04-21 12:08 51.70304 1.81358 27511 ft 366 kts 292°
2026-04-21 12:09 51.71159 1.77514 27090 ft 363 kts 292°
2026-04-21 12:09 51.72004 1.73696 26680 ft 360 kts 291°
2026-04-21 12:09 51.72841 1.69895 26265 ft 358 kts 291°
2026-04-21 12:09 51.73668 1.66129 25864 ft 355 kts 291°
2026-04-21 12:10 51.74383 1.62321 25467 ft 357 kts 283°
2026-04-21 12:10 51.74588 1.58323 24983 ft 361 kts 271°
2026-04-21 12:10 51.74339 1.54219 24414 ft 371 kts 264°
2026-04-21 12:10 51.74038 1.50113 23851 ft 376 kts 264°
2026-04-21 12:11 51.73754 1.45916 23228 ft 377 kts 266°
2026-04-21 12:11 51.73487 1.41707 22666 ft 376 kts 265°
2026-04-21 12:11 51.73224 1.37508 22102 ft 376 kts 265°
2026-04-21 12:11 51.72958 1.33322 21540 ft 376 kts 265°
2026-04-21 12:12 51.72686 1.29132 20978 ft 375 kts 265°
2026-04-21 12:12 51.72409 1.24944 20411 ft 375 kts 265°
2026-04-21 12:12 51.72131 1.20758 19847 ft 375 kts 265°
2026-04-21 12:12 51.71854 1.16583 19435 ft 371 kts 265°
2026-04-21 12:13 51.71581 1.12487 18920 ft 369 kts 265°
2026-04-21 12:13 51.71301 1.08316 18110 ft 377 kts 265°
2026-04-21 12:13 51.71014 1.04118 17551 ft 376 kts 265°
2026-04-21 12:13 51.70726 0.99941 17005 ft 374 kts 265°
2026-04-21 12:14 51.70439 0.95785 16450 ft 372 kts 264°
2026-04-21 12:14 51.70153 0.91643 15947 ft 370 kts 264°
2026-04-21 12:14 51.69868 0.87523 15431 ft 368 kts 264°
2026-04-21 12:14 51.69583 0.83422 14895 ft 368 kts 264°
2026-04-21 12:15 51.69299 0.79343 14445 ft 365 kts 264°
2026-04-21 12:15 51.69012 0.75285 13973 ft 362 kts 264°
2026-04-21 12:15 51.68726 0.71254 13390 ft 361 kts 264°
2026-04-21 12:15 51.68440 0.67244 12911 ft 358 kts 263°
2026-04-21 12:16 51.68155 0.63256 12361 ft 359 kts 263°
2026-04-21 12:16 51.67870 0.59286 11922 ft 355 kts 263°
2026-04-21 12:16 51.67583 0.55333 11465 ft 352 kts 263°
2026-04-21 12:16 51.67303 0.51476 11291 ft 341 kts 263°
2026-04-21 12:17 51.67030 0.47741 11174 ft 330 kts 263°
2026-04-21 12:17 51.66766 0.44130 10939 ft 319 kts 263°
2026-04-21 12:17 51.66507 0.40600 10424 ft 315 kts 263°
2026-04-21 12:17 51.66250 0.37123 9854 ft 312 kts 263°
2026-04-21 12:18 51.65991 0.33672 9292 ft 308 kts 263°
2026-04-21 12:18 51.65738 0.30271 8667 ft 305 kts 263°
2026-04-21 12:18 51.65484 0.26887 8058 ft 303 kts 263°
2026-04-21 12:18 51.65232 0.23543 7545 ft 299 kts 263°
2026-04-21 12:19 51.64988 0.20289 7320 ft 284 kts 263°
2026-04-21 12:19 51.64758 0.17236 7329 ft 268 kts 262°
2026-04-21 12:19 51.64537 0.14276 7331 ft 267 kts 263°
2026-04-21 12:19 51.64355 0.11323 7332 ft 264 kts 264°
2026-04-21 12:20 51.64197 0.08370 7330 ft 265 kts 265°
2026-04-21 12:20 51.64044 0.05415 7331 ft 266 kts 265°
2026-04-21 12:20 51.63890 0.02453 7326 ft 265 kts 265°
2026-04-21 12:20 51.63733 -0.00521 7231 ft 268 kts 265°
2026-04-21 12:21 51.63571 -0.03505 7052 ft 263 kts 264°
2026-04-21 12:21 51.63408 -0.06430 7090 ft 263 kts 264°
2026-04-21 12:21 51.63245 -0.09327 7099 ft 264 kts 264°
2026-04-21 12:21 51.63077 -0.12303 7107 ft 263 kts 264°
2026-04-21 12:22 51.62911 -0.15222 7110 ft 262 kts 264°
2026-04-21 12:22 51.62744 -0.18147 7114 ft 263 kts 264°
2026-04-21 12:22 51.62576 -0.21084 7119 ft 263 kts 264°
2026-04-21 12:22 51.62407 -0.24015 7118 ft 263 kts 264°
2026-04-21 12:23 51.62238 -0.26947 7119 ft 263 kts 264°
2026-04-21 12:23 51.62068 -0.29877 7120 ft 263 kts 264°
2026-04-21 12:23 51.61896 -0.32803 7008 ft 263 kts 264°
2026-04-21 12:23 51.61722 -0.35736 7010 ft 263 kts 264°
2026-04-21 12:24 51.61550 -0.38659 7011 ft 262 kts 264°
2026-04-21 12:24 51.61377 -0.41570 7010 ft 261 kts 264°
2026-04-21 12:24 51.61202 -0.44492 7013 ft 263 kts 264°
2026-04-21 12:24 51.61028 -0.47419 7011 ft 263 kts 264°
2026-04-21 12:25 51.60855 -0.50346 7011 ft 263 kts 264°
2026-04-21 12:25 51.60678 -0.53282 7011 ft 263 kts 264°
2026-04-21 12:25 51.60498 -0.56205 7012 ft 263 kts 264°
2026-04-21 12:25 51.60318 -0.59132 7010 ft 263 kts 264°
2026-04-21 12:26 51.60136 -0.62057 7011 ft 262 kts 264°
2026-04-21 12:26 51.59956 -0.64976 7009 ft 263 kts 264°
2026-04-21 12:26 51.59772 -0.67935 6717 ft 267 kts 264°
2026-04-21 12:26 51.59590 -0.70908 6410 ft 267 kts 264°
2026-04-21 12:27 51.59469 -0.72876 6223 ft 266 kts 264°
2026-04-21 12:27 51.59251 -0.75826 5946 ft 265 kts 256°
2026-04-21 12:27 51.58379 -0.78358 5550 ft 261 kts 218°
2026-04-21 12:27 51.56797 -0.79584 5180 ft 251 kts 181°
2026-04-21 12:28 51.55095 -0.79377 4804 ft 245 kts 166°
2026-04-21 12:28 51.52820 -0.79102 4347 ft 250 kts 174°
2026-04-21 12:28 51.51639 -0.79077 4101 ft 252 kts 174°
2026-04-21 12:28 51.49899 -0.79067 3759 ft 247 kts 173°
2026-04-21 12:29 51.48323 -0.78515 3447 ft 221 kts 140°
2026-04-21 12:29 51.47476 -0.76727 3164 ft 194 kts 97°
2026-04-21 12:29 51.47561 -0.74676 2928 ft 180 kts 79°
2026-04-21 12:29 51.47631 -0.72711 2805 ft 175 kts 88°
2026-04-21 12:30 51.47639 -0.70816 2709 ft 163 kts 87°
2026-04-21 12:30 51.47647 -0.69068 2602 ft 151 kts 87°
2026-04-21 12:30 51.47655 -0.67412 2441 ft 146 kts 87°
2026-04-21 12:30 51.47664 -0.65801 2243 ft 144 kts 87°
2026-04-21 12:31 51.47669 -0.64208 2047 ft 142 kts 87°
2026-04-21 12:31 51.47672 -0.62625 1868 ft 142 kts 87°
2026-04-21 12:31 51.47674 -0.61057 1645 ft 140 kts 87°
2026-04-21 12:31 51.47677 -0.59527 1453 ft 138 kts 87°
2026-04-21 12:32 51.47682 -0.57967 1274 ft 141 kts 87°
2026-04-21 12:32 51.47696 -0.56395 1108 ft 141 kts 86°
2026-04-21 12:32 51.47717 -0.54845 928 ft 136 kts 86°
2026-04-21 12:32 51.47738 -0.53357 740 ft 134 kts 85°
2026-04-21 12:33 51.47750 -0.51904 525 ft 132 kts 90°
2026-04-21 12:33 51.47747 -0.50456 377 ft 129 kts 89°
2026-04-21 12:33 51.47748 -0.49002 196 ft 132 kts 89°
2026-04-21 12:33 51.47754 -0.47572 97 ft 117 kts 88°
2026-04-21 12:34 51.47759 -0.46418 91 ft 89 kts 89°
2026-04-21 12:34 51.47758 -0.45744 87 ft 40 kts 90°
2026-04-21 12:34 51.47754 -0.45517 89 ft 16 kts 104°
2026-04-21 12:34 51.47684 -0.45468 86 ft 8 kts 182°
2026-04-21 12:35 51.47648 -0.45467 86 ft 14 kts 179°
2026-04-21 12:35 51.47595 -0.45570 88 ft 14 kts 270°
2026-04-21 12:35 51.47595 -0.45607 88 ft 2 kts 270°
2026-04-21 12:35 51.47595 -0.45647 90 ft 1 kts 270°
2026-04-21 12:36 51.47595 -0.45656 90 ft 5 kts 270°
2026-04-21 12:36 51.47595 -0.45794 87 ft 20 kts 270°
2026-04-21 12:36 51.47594 -0.46047 87 ft 24 kts 269°
2026-04-21 12:36 51.47594 -0.46326 86 ft 26 kts 270°
2026-04-21 12:37 51.47592 -0.46629 86 ft 28 kts 269°
2026-04-21 12:37 51.47585 -0.46876 90 ft 9 kts 257°
2026-04-21 12:37 51.47540 -0.46944 87 ft 10 kts 174°
2026-04-21 12:37 51.47449 -0.46896 90 ft 17 kts 164°
2026-04-21 12:38 51.47327 -0.46868 86 ft 19 kts 179°
2026-04-21 12:38 51.47193 -0.46865 86 ft 20 kts 179°
2026-04-21 12:38 51.47050 -0.46864 86 ft 21 kts 178°
2026-04-21 12:38 51.46901 -0.46862 87 ft 22 kts 179°
2026-04-21 12:39 51.46769 -0.46856 87 ft 10 kts 163°
2026-04-21 12:39 51.46747 -0.46751 88 ft 11 kts 88°
2026-04-21 12:39 51.46748 -0.46614 86 ft 13 kts 89°
2026-04-21 12:39 51.46747 -0.46445 86 ft 16 kts 90°
2026-04-21 12:40 51.46747 -0.46258 88 ft 18 kts 90°
2026-04-21 12:40 51.46747 -0.46060 89 ft 15 kts 88°
2026-04-21 12:40 51.46771 -0.45987 88 ft 7 kts 12°
2026-04-21 12:40 51.46822 -0.45985 87 ft 8 kts 352°
2026-04-21 12:41 51.46870 -0.46033 87 ft 8 kts 324°
2026-04-21 12:41 51.46915 -0.46017 88 ft 8 kts 60°
2026-04-21 12:41 51.46933 -0.45972 88 ft 0 kts 54°
2026-04-21 12:41 51.46934 -0.45970 88 ft 0 kts 54°